Location: R�serve Fauniques des Laurentides
(47.3100°N, 71.1900°W)
Time: 08:01:10
(UTC-04:00)

Cosmos 1674 - Visible Passes

Search period start: 20 April 2014 00:00
Search period end: 30 April 2014 00:00
Orbit: 517 x 546 km, 82.5° (Epoch: 20 April)

Date Brightness Start Highest point End Pass type
(mag) Time Alt. Az. Time Alt. Az. Time Alt. Az.
21 Apr 6.0 05:11:06 10° ESE 05:13:21 15° E 05:15:36 10° NE visible
22 Apr 6.0 05:01:10 10° ESE 05:03:15 14° E 05:05:20 10° NE visible
23 Apr 6.0 04:51:14 10° ESE 04:53:08 13° E 04:55:02 10° NE visible
24 Apr 6.0 04:41:18 10° ESE 04:43:00 13° E 04:44:41 10° ENE visible
25 Apr 6.1 04:31:25 10° ESE 04:32:50 12° E 04:34:16 10° ENE visible
26 Apr 6.1 04:21:34 10° E 04:22:40 11° E 04:23:46 10° ENE visible
27 Apr 6.2 04:11:53 10° E 04:12:28 10° E 04:13:04 10° ENE visible
